Regional Weather Roundup
Issued by NWS Mobile, AL

Home | Current Version | Previous Version | Text Only | Print | Product List | Glossary On
Versions: 1 2 3 4 5 6 7 8 9 10 11 12 13 14 15 16 17 18 19 20 21 22 23 24 25 26 27
000
ASUS44 KMOB 181110
RWRMOB
REGIONAL WEATHER ROUNDUP
NATIONAL WEATHER SERVICE MOBILE AL
600 AM CDT FRI APR 18 2014

NOTE: "FAIR" INDICATES FEW OR NO CLOUDS BELOW 12,000 FEET WITH NO
      SIGNIFICANT WEATHER AND/OR OBSTRUCTIONS TO VISIBILITY.

  * THESE STATIONS ARE PART OF THE UNIVERSITY OF SOUTH ALABAMA
    MESONET AND ARE NOT UNDER NWS OR FAA QUALITY CONTROL.

ALZ061>064-181200-
COASTAL ALABAMA

CITY           SKY/WX    TMP DP  RH WIND       PRES   REMARKS
MOBILE REG APT CLOUDY    59  59 100 NE13      30.05S FOG
BROOKLEY FIELD HVY RAIN  60  58  92 NE14      30.05S FOG
USA CAMPUS*      N/A     59  57  94 E5        30.06S
DOG RIVER*     NOT AVBL


CITY           SKY/WX    TMP DP  RH WIND       PRES   REMARKS
MOUNT VERNON*    N/A     57  55  94 E2        30.09S
SARALAND*      NOT AVBL
BAY MINETTE*   NOT AVBL
LOXLEY*        NOT AVBL
ROBERTSDALE*   NOT AVBL
FAIRHOPE*      NOT AVBL
ELBERTA*       NOT AVBL
FOLEY*         NOT AVBL
GRAND BAY*       N/A     59  59 100 NE18      30.02S
DAUPHIN ISLND* NOT AVBL
BON SCOUR NWR* NOT AVBL
GULF SHORES    RAIN      60  59  98 NE10G16   30.02S

$$

ALZ051>060-181200-
INTERIOR SOUTHWEST AND SOUTH CENTRAL ALABAMA

CITY           SKY/WX    TMP DP  RH WIND       PRES   REMARKS
GREENVILLE     RAIN      55  53  93 E12       30.14S
EVERGREEN      HVY RAIN  58  55  90 NE8       30.13S FOG
CASTLEBERRY*   NOT AVBL
ATMORE*          N/A     57  57 100 NE13      30.08F
DIXIE*         NOT AVBL
ANDALUSIA/OPP  RAIN      60  55  83 E15G21    30.11S
ANDALUSIA*     NOT AVBL
FLORALA APT    HVY RAIN  57  55  93 NE12      30.12R FOG
FLORALA*         N/A     55  55 100 N6        30.08S

$$

FLZ001>006-181200-
WESTERN FLORIDA PANHANDLE

CITY           SKY/WX    TMP DP  RH WIND       PRES   REMARKS
PENSACOLA      HVY RAIN  61  58  90 N14       30.03F FOG
NAS PENSACOLA  RAIN      61  60  97 NE14G24   30.02S FOG
MILTON         HVY RAIN  58  56  93 NE9       30.05F FOG
WHTNG S FIELD  HVY RAIN  60  58  92 NE15      30.05F FOG


CITY           SKY/WX    TMP DP  RH WIND       PRES   REMARKS
WALNUT HILL*   NOT AVBL
JAY*           NOT AVBL
DUKE FIELD     HVY RAIN  59  59 100 NE10      30.04S FOG
CRESTVIEW      HVY RAIN  58  57  97 N12       30.07F FOG
VALPARAISO     HVY RAIN  60  60 100 NE14G20   30.02F FOG
DESTIN         HVY RAIN  62  59  90 NE13      30.02S FOG

$$

MSZ076-079-181200-
INTERIOR SOUTHEAST MISSISSIPPI

CITY           SKY/WX    TMP DP  RH WIND       PRES   REMARKS
LEAKESVILLE*     N/A     57  55  94 N3        30.10R
AGRICOLA*      NOT AVBL

$$

MARINE OBSERVATIONS

STATION/POSITION TIME  TEMP    WIND        PRES    WAVE
                       AIR SEA DIR/SP/G            HT/PER
                 (UTC) (F)     (DEG/KT/KT) (MB)    (FT/S)
PASCAGOULA       1100   61      30/  8/ 12 1016.4S
PETIT BOIS ISLND 1100   62      50/ 20/ 24 1016.4S
GRAND BAY        1000   61      60/ 13     1017.0F
KATRINA CUT      1000   61      70/ 22     1016.9S
CEDAR POINT      1000   60      60/ 15     1016.9R
E DAUPHIN ISLAND 1000   61      50/ 16/ 18 1016.3F
MIDDLE BAY LIGHT 1000   61      50/ 21     1016.3S
USCG MOBILE BAY  1100   61 64   40/ 13/ 15 1016.2S
STATE DOCKS      1100   60 63              1017.0S
MEAHER PARK      1000   60      40/  8     1017.6S
WEEKS BAY        1000   51                   N/A
FORT MORGAN      1100   61      70/ 16/ 20 1015.9R
12 S ORANGE BCH  1100   63 66   50/ 21/ 27 1015.6S   7/ 7
PENSACOLA BAY    1100   61 66   30/ 12/ 17 1016.9S
64 S DAUPHIN ISL 1040   66 71   50/ 25/ 31 1013.6F
67 S FORT MORGAN 0900   66                 1013.5S

$$

SELECTED LOCATIONS ACROSS THE REGION

CITY           SKY/WX    TMP DP  RH WIND       PRES   REMARKS
NEW ORLEANS    CLOUDY    62  59  90 N12       30.06F
GULFPORT       LGT RAIN  62  59  90 N8        30.04S
PASCAGOULA AP  LGT RAIN  61  59  93 NE10      30.04S
PASCAGOULA*    NOT AVBL
HATTIESBURG    LGT RAIN  59  58  96 NE7       30.11F
LAUREL         CLOUDY    57  55  94 NE7       30.12S
MERIDIAN       LGT RAIN  57  55  93 NE6       30.16R
JACKSON        CLOUDY    57  54  89 CALM      30.14R
MONTGOMERY     RAIN      56  52  86 E14       30.19R
TROY           LGT RAIN  55  52  89 E9        30.17S
KINSTON*       NOT AVBL
GENEVA*          N/A     54  52  94 E7        30.14S
ASHFORD*       NOT AVBL
DOTHAN         HVY RAIN  54  53  97 E10       30.19R FOG
PANAMA CITY    LGT RAIN  61  58  90 NE17G29   30.01F

$$




USA.gov is the U.S. government's official web portal to all federal, state and local government web resources and services.